Location: Penton Mewsey
(51.2167°N, 1.5167°W)
Time: 09:44:34
(UTC+00:00)

Nadezhda 1 Rocket - Pass Details

Date: 30 March 2020
Orbit: 941 x 1006 km, 83.0° (Epoch: 06 June)

Event Time Altitude Azimuth Distance (km) Brightness Sun altitude
Exits shadow 20:29:58 18° 161° (SSE) 2,271 5.5 -17.5°
Maximum altitude 20:34:40 52° 91° (E) 1,235 4.2 -18.1°
Drops below altitude 10° 20:40:50 10° 18° (NNE) 2,783 6.6 -18.9°
Sets 20:43:25 0° 13° (NNE) 3,730 7.3 -19.3°
